Wind_Speed
10 9 11 12 13 16 17 17 17 17 14 11 11 13 16 15 13 14 14 13 12 12 14 15 14 14 14 14 14 13 15 17 15 10 10 15 16 16 16 16 16 17 17 20 25 28 28 27 27 26 26 27 26 24 25 26 26 25 25 24 22 22 22 21 19 18 16 15 14 13 12 11 11 10 8 7 7 7 7 7 6 7 7 7 6 5
11 11 13 16 17 16 17 18 17 18 16 12 10 11 13 15 14 12 14 15 14 11 13 15 14 14 14 16 17 17 16 16 14 14 17 19 15 14 15 16 16 15 15 19 23 26 29 28 28 28 26 28 28 26 27 27 27 25 25 25 23 22 22 21 20 19 18 16 15 14 13 11 11 11 10 9 8 7 7 8 7 7 7 7 7 6
11 13 16 18 17 16 15 16 18 18 16 13 10 9 9 11 13 13 13 16 15 9 11 15 14 14 14 13 15 19 17 13 15 17 18 18 16 14 14 14 14 14 15 19 21 24 29 29 29 28 26 29 28 27 28 27 27 26 25 25 24 23 22 21 20 20 19 18 16 15 13 12 10 10 10 9 8 8 7 8 8 8 8 8 7 7
10 12 17 17 15 16 17 15 16 16 13 12 10 9 9 10 11 11 10 14 13 9 10 14 13 13 13 13 15 19 18 15 16 14 12 13 15 15 15 14 14 16 16 18 21 23 26 29 30 28 27 29 29 28 29 29 28 27 25 26 25 24 23 21 21 20 19 18 16 14 13 12 9 8 9 9 8 9 8 8 9 8 9 9 7 7
12 11 15 18 16 17 18 15 15 13 11 13 14 11 10 11 12 11 10 11 12 12 12 13 11 10 12 14 15 17 17 15 16 17 15 15 16 16 15 15 15 16 16 17 21 22 23 26 29 30 29 29 30 29 30 31 30 28 27 27 26 25 23 22 21 20 19 18 17 15 12 12 10 7 9 10 9 9 9 9 9 9 10 10 9 8
13 13 12 16 18 18 17 15 15 13 10 13 16 14 14 13 13 14 13 9 9 11 14 14 10 8 12 16 15 15 16 17 18 20 19 14 12 12 13 14 13 14 15 17 20 20 22 25 28 30 30 30 31 31 31 31 30 29 28 28 26 25 24 23 22 22 20 19 18 17 15 14 13 11 10 12 11 10 11 10 10 10 10 11 10 9
11 15 12 12 17 19 17 15 15 15 10 9 12 16 18 17 15 14 12 9 8 8 12 16 12 8 10 15 17 15 17 20 20 19 17 14 12 12 12 12 12 14 15 16 19 20 21 24 27 29 30 31 31 31 31 30 30 30 29 29 28 26 25 24 23 24 22 20 19 19 18 17 16 15 13 13 12 10 10 10 10 10 10 11 11 10
10 17 15 13 15 17 15 14 14 15 12 9 8 11 15 18 18 15 10 10 10 8 10 15 14 9 9 13 16 17 18 20 20 18 17 16 15 14 12 12 13 14 15 15 17 20 21 24 27 29 31 32 31 31 31 30 31 31 30 30 29 26 25 25 25 25 23 21 21 20 19 18 17 16 15 13 12 11 10 10 10 10 10 11 11 11
11 17 18 15 14 14 13 12 14 16 13 11 10 7 8 13 17 16 11 9 10 10 10 13 15 12 9 10 14 18 19 19 19 19 18 18 17 15 13 14 16 17 16 16 18 20 21 24 29 32 31 31 30 31 31 31 31 31 30 30 30 28 26 26 26 27 25 23 22 21 20 19 18 17 15 14 13 13 11 11 11 11 10 10 11 11
10 14 17 16 12 11 13 13 16 18 13 12 13 9 5 9 13 14 12 9 10 12 11 13 16 13 8 8 11 15 17 17 18 17 17 18 18 17 15 16 18 17 16 17 18 19 22 26 30 31 31 31 30 30 30 30 30 30 30 30 31 30 27 27 28 28 27 24 23 22 21 20 18 17 16 15 14 14 13 12 12 12 11 11 11 12
13 11 13 14 12 11 13 14 16 17 14 12 14 10 7 8 9 10 10 9 10 13 14 17 19 16 10 8 10 12 13 14 15 15 17 18 17 18 17 16 17 16 14 16 19 20 22 27 31 31 31 31 30 29 29 30 29 30 31 31 32 31 28 28 29 28 28 26 24 23 22 21 20 19 18 16 15 15 15 15 14 14 13 13 12 12
17 14 11 11 13 13 13 14 13 14 14 12 11 10 8 7 8 8 9 10 11 12 13 17 20 19 13 9 10 13 15 15 14 14 19 21 20 19 17 17 17 15 14 17 18 18 20 23 26 29 30 31 31 30 30 30 30 31 31 32 32 31 29 29 29 29 28 27 25 23 23 23 22 20 19 19 18 17 17 17 16 15 14 14 14 13
14 16 13 12 13 15 14 12 11 12 13 12 10 10 9 8 7 9 9 10 11 11 12 15 18 18 14 11 13 14 16 18 17 15 18 23 23 21 19 17 12 11 16 17 15 16 19 20 22 26 29 30 31 31 32 32 31 31 31 32 33 32 31 30 30 30 29 28 26 24 23 23 22 21 21 21 20 19 19 18 17 16 16 15 15 15
10 14 18 16 13 14 15 12 10 11 12 12 11 10 10 9 9 10 10 10 11 11 13 16 16 14 12 13 16 17 15 16 19 18 17 21 22 21 21 18 13 13 17 16 14 16 19 20 21 24 28 30 31 32 32 32 31 31 31 33 34 33 32 31 31 31 30 29 27 26 24 23 22 22 22 21 21 21 20 18 18 18 17 17 16 16
10 11 16 18 12 13 17 16 12 11 11 12 12 11 10 10 9 9 9 9 10 9 13 17 14 11 10 10 14 18 17 14 13 15 16 17 19 18 18 19 17 17 16 15 15 18 20 22 22 25 29 30 31 32 33 32 32 31 31 33 34 33 33 32 31 31 31 30 28 27 25 23 23 22 22 22 21 21 21 19 19 19 18 17 17 17
12 10 12 20 18 15 18 18 16 13 11 11 12 12 11 11 10 8 8 10 10 9 11 13 10 9 8 8 11 15 18 18 12 10 14 16 19 17 16 17 17 15 14 14 15 18 21 22 23 26 29 30 32 33 32 32 33 32 32 33 34 34 34 33 33 32 31 30 29 28 27 25 23 23 22 22 21 22 21 20 20 20 20 18 16 16
9 10 10 16 22 21 18 17 18 16 10 9 12 12 11 12 12 9 9 10 10 10 9 9 10 10 9 9 11 14 17 20 17 12 13 14 20 19 15 16 17 16 17 17 17 19 20 20 22 26 29 30 32 33 34 34 34 34 33 33 35 34 33 33 33 32 31 30 29 28 28 26 25 24 23 23 23 22 22 21 20 20 20 19 17 17
6 8 12 11 15 20 20 19 20 19 15 10 10 12 11 13 13 9 8 9 10 10 8 11 14 12 10 9 11 15 15 15 18 18 15 14 17 19 17 17 17 18 19 20 19 19 19 19 21 25 28 31 33 34 35 36 35 34 33 34 35 35 35 34 34 32 32 31 30 29 29 28 27 26 25 23 23 23 22 22 21 20 19 20 19 18
7 8 9 8 9 13 16 17 16 18 21 18 11 9 10 12 12 10 9 9 10 10 7 11 14 12 11 10 11 16 16 14 15 17 17 16 16 16 17 20 21 20 18 18 16 15 16 18 21 26 29 31 33 34 35 35 35 34 33 33 35 36 36 35 33 32 32 32 30 29 30 30 29 27 25 24 23 23 23 22 22 21 20 20 20 19
6 8 8 8 9 11 11 13 13 14 19 20 16 11 10 10 10 10 9 8 9 9 9 10 11 9 9 9 11 15 17 18 17 16 17 18 18 17 16 18 21 20 17 17 16 14 16 18 23 28 30 31 33 33 33 34 35 35 34 33 34 34 34 34 33 32 32 32 30 29 30 30 29 28 26 25 24 23 23 23 23 22 21 21 20 20
6 7 8 9 11 12 10 10 12 13 13 16 15 12 11 11 10 10 10 9 9 8 8 8 8 8 7 8 12 13 14 16 19 17 15 16 18 18 17 16 17 18 17 17 17 16 16 19 23 28 30 30 31 31 31 33 34 34 34 33 34 34 34 35 35 33 33 32 30 30 31 31 30 28 27 26 25 24 23 24 23 22 22 21 21 21
5 7 8 10 9 11 12 12 15 18 16 14 13 13 13 12 12 12 11 11 10 8 8 7 7 7 7 8 11 12 9 10 14 18 17 16 18 16 17 18 17 17 18 19 17 17 17 19 21 26 28 28 29 30 32 33 33 34 34 34 34 34 35 36 35 34 33 33 32 32 32 31 30 29 28 27 26 25 24 24 24 22 22 22 22 22
4 6 8 10 10 11 15 16 16 20 20 15 14 16 16 13 13 12 12 11 11 10 9 9 8 4 3 5 8 11 10 7 7 12 14 15 16 15 16 17 16 15 17 19 19 19 19 19 19 22 26 27 28 30 32 32 33 34 35 34 34 35 35 35 35 34 33 33 33 33 32 31 30 29 29 28 27 27 26 25 24 23 23 22 22 22
4 5 8 8 9 11 14 14 13 15 16 13 13 15 17 17 16 13 12 10 10 13 12 9 9 5 7 6 3 6 8 8 6 8 11 12 13 14 15 15 14 15 15 17 18 17 16 16 16 17 21 24 26 28 30 31 31 33 33 34 34 36 36 35 34 33 33 33 34 33 32 31 31 30 30 29 28 28 27 26 25 24 24 23 22 22
4 6 7 8 9 9 11 11 10 13 14 11 12 15 17 20 22 18 13 7 6 12 15 12 10 6 9 9 4 2 2 5 6 7 9 8 7 9 12 11 10 12 15 17 16 16 15 14 13 14 16 20 25 28 30 31 31 31 33 34 34 35 35 35 34 33 34 34 33 34 34 33 32 31 31 31 29 28 28 27 25 25 24 24 23 23
6 6 6 7 10 10 9 7 6 8 8 10 15 21 21 22 22 18 10 5 5 10 13 12 10 9 9 12 8 6 7 6 5 4 5 8 7 6 4 3 3 5 11 15 15 15 15 13 13 14 15 20 26 27 28 30 30 31 32 33 33 33 34 35 34 34 34 33 34 34 35 34 33 33 33 32 30 28 28 28 26 25 25 24 24 24
6 8 9 10 12 10 8 7 8 9 8 11 14 18 21 23 19 12 8 7 8 9 11 11 7 9 12 14 10 8 6 4 3 1 2 4 8 6 1 3 1 2 5 8 8 8 10 12 15 16 16 21 25 26 27 29 30 29 29 31 31 31 33 34 34 34 34 33 34 34 35 36 35 34 33 32 31 29 28 28 27 26 25 25 25 24
5 9 11 15 16 16 15 15 14 12 12 15 15 15 19 19 19 15 13 13 12 10 12 13 10 9 9 9 10 7 6 6 6 8 7 4 5 6 6 4 1 3 5 6 5 6 7 10 14 16 17 21 25 26 26 28 29 29 29 29 29 29 31 33 34 34 34 33 34 34 36 36 35 34 33 32 31 29 28 28 28 27 26 25 25 25
7 10 12 15 17 17 18 18 16 14 13 16 16 15 19 16 17 18 18 18 16 12 9 11 12 12 9 2 9 9 7 7 7 7 3 4 9 9 7 3 2 5 7 7 7 8 9 10 12 15 16 19 23 25 26 27 28 28 28 29 30 30 31 32 33 34 34 33 34 34 35 34 33 33 32 31 31 30 29 28 28 28 26 26 25 25
7 9 11 14 15 18 19 17 16 16 15 16 17 15 15 14 15 19 19 20 23 19 13 12 13 14 8 5 9 5 5 6 7 7 4 3 7 7 7 7 5 3 3 3 1 4 8 9 11 13 14 16 20 23 24 25 27 28 29 31 31 31 31 32 32 33 34 34 33 33 33 32 32 32 32 31 31 31 29 28 28 28 27 26 26 25
6 8 10 11 11 15 18 17 17 17 16 16 17 16 14 14 15 18 18 19 22 20 18 17 15 15 10 2 8 7 6 6 6 6 5 4 5 6 8 9 9 8 8 10 10 7 3 5 9 12 13 15 19 22 23 23 26 28 28 29 31 31 31 32 32 33 33 33 32 31 32 32 31 32 32 32 31 31 30 29 28 28 28 27 26 26
6 7 9 9 9 11 15 17 19 19 17 17 18 17 17 16 14 14 14 16 18 19 19 17 14 14 10 3 9 9 8 8 7 6 6 6 8 9 9 9 9 9 9 9 11 12 9 6 7 11 14 17 20 22 24 24 25 27 28 29 31 32 32 32 33 32 31 31 30 31 32 32 31 31 32 32 31 31 31 29 28 28 28 28 27 26
7 7 7 8 9 10 13 15 15 16 16 15 14 15 17 17 16 16 15 15 17 18 17 14 14 14 7 7 10 11 11 10 8 7 8 8 10 11 10 9 9 10 10 10 11 12 10 8 7 8 11 16 20 22 24 26 26 27 29 30 30 31 32 31 32 31 30 30 30 31 31 31 31 31 31 32 31 31 30 30 29 28 28 28 27 26
7 8 7 7 7 10 13 12 10 11 13 11 10 13 17 19 19 17 16 16 17 17 13 11 14 13 5 8 9 11 13 12 10 9 9 9 8 8 9 9 8 9 10 9 10 11 10 9 9 10 11 13 18 23 25 26 27 27 28 28 29 30 30 30 30 30 30 30 30 30 31 31 31 31 31 31 31 30 30 30 30 29 28 27 26 26
8 8 7 7 7 9 10 11 10 11 11 9 9 11 13 18 21 20 20 20 17 14 13 14 13 10 4 6 8 10 12 14 14 12 9 9 10 9 9 8 8 9 10 10 10 11 11 11 11 12 13 15 16 20 24 25 26 27 27 28 30 31 30 30 29 30 30 30 30 30 31 31 31 30 30 31 30 30 30 30 29 28 27 26 26 26
8 8 7 6 7 8 8 9 11 9 9 10 11 10 11 14 17 18 19 18 11 8 11 14 12 8 5 7 8 10 11 13 14 9 7 12 12 11 10 9 10 11 11 12 12 12 12 13 14 14 14 15 17 18 22 26 27 27 28 29 30 31 31 30 29 29 30 30 30 31 31 31 31 30 30 30 30 29 29 29 29 28 27 26 25 25
9 8 6 6 7 8 8 9 9 9 11 12 9 6 6 6 7 8 9 9 7 5 5 7 6 4 6 8 9 10 10 11 10 4 9 15 14 13 13 12 12 13 13 14 16 16 16 17 17 17 16 15 16 19 21 25 28 28 28 29 29 30 31 31 30 30 31 31 31 32 32 31 31 30 29 30 30 29 29 29 28 28 27 25 25 25
9 8 7 7 7 7 9 9 8 9 9 5 3 6 7 8 7 5 5 6 7 4 1 2 1 4 6 7 9 10 9 9 9 2 10 17 16 15 15 14 14 14 15 17 19 19 20 20 18 18 18 16 16 19 21 23 27 28 28 29 30 31 31 32 32 31 32 33 32 32 32 32 31 30 30 30 30 29 29 28 27 27 27 26 25 25
11 9 8 8 8 8 9 9 8 9 6 2 5 7 8 9 10 7 3 5 4 2 1 2 2 5 5 6 9 8 6 7 6 3 13 18 17 16 16 15 15 16 18 19 20 21 21 22 22 20 20 18 16 19 22 23 27 28 28 29 31 31 31 32 33 33 33 33 33 32 31 31 31 30 30 30 30 29 28 27 26 26 26 25 25 24
9 7 7 10 9 9 10 9 8 8 3 5 5 6 7 9 9 5 4 3 1 3 1 1 3 3 3 5 7 5 3 4 5 8 14 17 17 16 16 16 16 17 19 21 22 23 24 25 23 20 18 17 16 19 22 24 27 28 28 30 30 30 32 33 34 34 32 31 31 31 30 30 31 31 30 29 29 27 27 26 25 25 25 24 24 23
7 6 7 10 10 11 12 10 9 8 1 4 3 5 7 7 5 3 3 2 5 4 3 3 3 2 3 5 5 4 4 6 7 10 14 16 17 17 17 19 20 20 20 22 23 24 24 23 22 20 17 16 16 17 21 24 25 25 26 28 28 30 32 33 32 31 30 31 31 31 30 30 30 31 29 28 28 26 26 25 24 25 25 24 23 23
6 6 7 9 10 10 10 9 10 8 0 4 5 4 5 4 5 2 2 6 5 4 5 4 4 5 5 5 5 5 6 7 9 11 13 15 16 17 18 19 20 21 22 24 24 24 23 22 24 22 17 14 15 16 20 23 22 23 25 26 28 30 30 29 30 30 30 31 31 30 30 29 29 29 28 27 27 26 25 25 25 24 24 23 22 22
5 6 7 9 8 9 10 10 11 7 2 6 6 3 3 3 2 1 4 7 6 6 5 3 5 7 6 5 6 7 8 9 10 12 13 14 15 16 18 18 18 19 21 21 22 24 23 22 24 21 15 14 14 15 19 21 19 20 23 26 27 27 26 26 29 30 29 30 30 29 29 28 28 28 26 26 27 27 25 25 24 24 24 23 21 21
4 5 6 5 4 6 9 7 4 2 4 7 5 1 3 3 2 2 4 5 6 7 5 4 5 7 7 7 7 8 9 9 10 12 12 13 15 16 17 17 17 19 21 21 22 24 23 22 22 18 14 14 13 14 17 19 18 19 21 25 25 24 23 25 28 28 27 28 29 28 28 27 27 27 26 25 26 26 25 25 24 23 23 23 21 21
2 4 6 6 6 7 9 7 5 5 4 4 4 2 2 3 1 2 4 4 4 5 6 6 7 8 9 9 8 8 9 10 11 12 12 13 14 15 16 17 18 20 21 21 22 24 23 22 21 15 12 12 11 14 16 16 18 18 20 23 23 22 23 24 26 26 26 26 27 27 26 26 26 26 25 25 26 25 24 24 24 23 23 22 22 21
3 5 6 6 7 10 11 11 9 9 9 6 4 3 2 1 0 1 4 4 4 4 5 7 9 10 10 9 9 8 9 11 11 12 13 13 13 14 15 16 18 21 22 21 23 25 24 23 20 12 9 9 7 12 15 15 17 19 19 21 22 22 23 24 24 24 24 24 25 26 26 25 24 24 24 24 24 24 23 24 23 22 22 22 22 21
1 5 7 8 10 10 7 5 6 9 10 9 7 6 5 4 4 3 3 5 5 5 5 7 10 12 11 9 8 9 11 11 11 11 12 12 12 13 14 16 17 20 22 21 22 25 23 20 19 14 8 6 4 7 11 14 16 17 19 21 22 23 24 23 23 23 22 23 23 24 24 24 24 24 23 23 23 22 22 23 23 22 22 23 22 21
3 7 8 10 10 9 10 10 11 12 12 10 9 8 7 6 6 5 4 5 7 9 8 6 8 11 11 9 9 9 11 11 11 11 11 11 11 11 13 15 17 19 21 23 23 23 20 17 17 17 12 6 3 2 5 10 14 16 18 21 23 24 23 23 23 22 21 22 22 22 23 24 23 23 22 22 23 22 21 22 23 22 23 23 22 22
6 8 8 9 10 10 11 11 13 13 12 10 9 7 5 5 7 7 6 7 8 10 10 8 8 9 11 11 10 9 10 10 10 11 11 11 11 11 13 17 19 18 20 23 23 22 20 16 16 18 17 12 8 4 1 4 8 12 17 20 22 23 23 22 22 22 22 22 21 22 22 22 23 22 22 22 21 19 19 21 22 22 22 22 23 23
7 8 7 8 9 9 7 9 11 11 9 7 6 5 4 4 7 9 10 9 10 10 11 11 10 10 11 11 10 9 9 9 10 11 10 10 11 13 15 19 20 18 19 22 22 22 21 19 18 19 19 19 14 7 3 2 1 5 12 16 19 21 23 22 21 22 22 22 21 22 22 22 22 22 21 21 21 18 17 17 17 18 20 22 24 26
5 6 7 7 8 9 11 14 14 12 11 10 9 8 7 7 9 11 12 11 10 10 11 11 11 11 10 10 10 10 9 9 10 11 10 10 13 15 18 20 19 17 18 20 22 22 21 20 21 21 22 24 20 12 7 6 5 1 4 9 14 18 21 21 21 22 22 21 21 22 22 21 22 22 21 21 20 19 18 16 13 14 16 19 22 25
Wind_Direction
198 204 207 215 214 210 213 218 228 237 247 255 240 228 225 231 234 214 203 201 202 214 218 214 216 203 180 170 177 185 191 201 196 185 235 226 184 175 181 175 176 180 180 180 181 182 182 181 180 179 178 179 180 177 175 175 176 175 173 173 173 173 174 171 171 174 175 177 177 181 182 180 181 183 182 183 185 181 170 165 165 171 179 180 181 180
202 217 214 214 218 218 217 220 230 240 249 259 260 250 230 226 237 223 201 197 203 216 222 221 225 221 201 176 173 186 197 203 192 190 218 218 190 175 178 178 178 179 178 178 181 183 183 181 181 180 179 180 180 178 178 177 177 177 175 174 173 173 175 175 175 177 179 182 181 183 187 187 184 184 189 190 190 191 175 171 178 179 184 188 187 193
204 224 222 215 218 224 224 221 225 235 244 244 245 257 247 226 229 232 213 197 197 213 224 221 227 231 213 180 181 190 190 201 204 204 213 202 183 176 181 180 180 183 182 179 180 183 184 182 181 180 179 181 180 178 180 179 178 178 176 175 174 174 176 177 178 179 181 184 185 186 189 193 190 184 193 197 190 195 187 178 188 191 190 193 194 200
209 220 223 221 216 219 226 224 222 228 236 240 236 238 246 238 229 230 217 196 193 216 231 221 223 235 218 190 197 198 186 192 205 215 231 212 185 179 185 184 182 189 187 181 182 183 184 182 181 181 180 181 181 180 181 180 179 180 178 176 175 177 178 178 179 180 182 183 184 187 190 196 201 188 187 196 193 196 199 187 189 194 195 198 200 203
225 218 216 221 216 216 223 221 219 223 224 231 236 236 240 241 236 235 222 195 193 217 232 231 226 230 225 209 203 197 183 187 200 205 211 209 191 174 180 189 185 188 190 188 186 184 184 183 182 182 180 181 182 182 182 182 181 181 180 177 176 178 179 179 180 179 179 179 180 183 185 191 201 193 180 192 198 195 202 201 194 196 199 201 203 205
230 227 214 214 216 215 221 220 216 222 225 225 228 233 244 253 247 241 239 220 207 216 214 220 233 226 222 225 219 199 184 187 200 202 194 189 185 174 180 189 185 189 197 196 190 186 186 185 183 182 181 182 183 183 184 183 183 183 180 178 176 177 179 180 180 178 177 176 178 180 181 184 189 192 189 194 201 197 201 208 204 199 199 203 205 205
230 233 223 214 218 214 217 224 217 217 230 229 217 220 232 251 260 251 245 236 229 233 212 206 225 236 216 221 224 212 198 193 192 195 192 179 174 182 186 184 183 194 201 200 195 190 188 186 184 183 183 184 184 183 183 183 184 183 180 178 177 177 179 181 180 178 177 178 180 182 185 188 188 193 198 200 205 207 205 209 209 202 198 202 207 206
221 231 224 208 220 220 216 221 213 210 226 236 220 218 222 231 247 254 250 239 238 256 238 212 214 238 231 217 217 216 213 203 189 186 191 182 175 184 185 177 185 198 201 203 201 194 190 189 187 185 185 187 185 183 182 184 184 182 181 179 178 179 179 181 180 179 180 180 182 185 189 193 195 200 203 203 208 213 212 210 209 207 200 200 207 210
207 226 228 211 214 225 219 215 213 212 223 238 233 227 227 227 234 243 248 247 247 253 249 225 216 227 236 221 216 216 216 212 198 188 189 188 183 184 186 188 193 198 200 203 202 199 193 190 189 186 185 187 186 184 183 184 184 182 181 179 178 180 180 181 180 179 183 183 184 187 190 194 199 203 205 206 207 209 212 210 208 209 203 198 207 213
218 216 227 223 214 222 225 215 218 222 222 233 239 228 221 237 235 235 239 245 252 250 243 236 233 232 229 224 220 216 215 215 206 191 183 185 183 179 187 198 197 194 198 200 200 202 197 192 191 186 184 186 187 185 184 184 183 181 181 179 179 180 181 181 180 181 184 184 184 187 191 194 197 200 202 204 204 203 205 206 205 206 203 201 207 211
252 225 218 227 220 218 231 225 219 224 221 221 235 231 214 232 236 234 235 236 247 248 237 235 241 241 232 222 220 216 216 217 212 196 181 181 184 183 188 201 201 194 197 203 201 201 199 194 191 187 183 185 186 185 184 184 183 182 181 180 181 181 181 181 181 182 184 185 187 190 192 194 196 196 198 200 200 198 199 201 203 204 203 205 208 209
250 241 219 223 225 219 230 234 219 216 220 218 224 227 219 219 224 228 226 222 234 242 234 230 237 243 238 227 222 214 206 212 222 206 181 178 185 187 189 196 198 193 196 204 203 199 198 195 191 188 184 184 185 184 184 185 184 182 182 181 180 182 182 182 182 183 185 186 189 191 192 195 196 196 196 198 199 197 197 200 201 202 204 207 210 210
234 239 232 222 218 217 224 229 214 206 213 216 214 217 220 214 210 218 214 214 228 236 233 225 227 237 243 240 238 228 205 200 213 213 187 181 186 185 186 187 190 200 202 200 202 202 197 192 189 187 184 182 185 185 184 185 185 183 183 181 180 182 182 182 183 184 185 187 190 190 192 194 196 197 199 199 200 199 199 200 200 201 203 206 208 209
216 222 228 228 214 204 216 222 209 201 201 208 211 207 212 212 207 212 213 219 228 229 229 226 224 231 239 236 234 238 230 203 200 211 205 188 184 184 183 178 180 202 205 194 197 208 200 190 187 184 182 182 185 187 185 185 185 183 183 182 181 182 182 181 182 183 185 187 189 190 191 194 196 198 201 201 202 203 201 202 202 203 205 206 208 209
236 220 210 218 214 192 206 222 223 212 203 206 213 214 217 222 219 215 213 219 227 226 220 220 224 228 229 228 222 226 238 230 202 206 212 187 173 182 183 177 182 194 200 190 194 210 203 188 185 183 182 183 185 187 187 185 185 184 183 183 182 182 181 181 182 183 185 186 187 189 190 193 197 198 200 202 204 205 203 205 205 205 208 209 209 209
255 252 208 203 210 203 201 215 226 228 217 200 207 220 219 223 235 240 238 231 231 234 219 212 221 228 232 242 231 218 220 228 219 205 215 192 167 175 181 178 184 190 198 196 195 211 206 186 182 184 183 184 185 186 187 186 186 185 184 183 183 182 181 181 182 183 185 185 186 188 189 191 195 196 198 201 203 205 205 206 206 206 208 210 209 207
251 257 248 211 205 207 202 204 214 226 230 199 200 219 219 226 240 248 251 244 235 235 224 213 218 218 227 236 232 225 215 214 212 204 219 199 165 169 180 180 186 187 193 198 197 207 204 185 183 186 184 184 185 186 187 187 187 187 184 183 182 182 182 182 182 183 183 184 186 187 188 190 194 196 197 199 201 204 204 205 206 207 207 208 208 205
275 273 276 252 217 209 203 204 212 222 235 229 206 205 208 226 242 246 246 237 229 234 225 218 220 210 213 216 209 218 217 210 206 201 208 201 173 174 180 180 190 191 190 195 198 203 200 186 184 187 187 188 187 187 188 187 187 187 185 184 182 182 183 183 183 182 182 183 185 186 188 190 194 196 198 200 201 202 203 203 204 207 206 205 206 205
301 288 266 259 250 228 209 211 219 218 226 240 241 213 203 218 226 228 239 234 224 230 224 221 225 215 212 209 194 202 207 207 210 204 201 200 190 187 183 179 187 194 191 191 196 203 201 190 185 188 190 190 189 189 189 187 186 186 187 186 185 184 184 184 183 182 182 182 184 187 188 190 193 196 197 199 200 200 202 202 202 204 204 202 203 203
294 281 258 232 237 240 222 215 222 212 211 228 243 237 223 225 220 214 228 241 233 230 224 220 222 221 216 209 201 202 202 204 209 209 208 206 203 202 197 187 186 189 187 185 186 197 206 198 189 189 191 191 190 190 189 188 187 187 187 187 187 186 184 184 184 183 182 183 185 186 187 189 192 195 196 197 199 199 201 202 200 201 201 200 200 200
268 265 269 254 233 233 230 214 222 227 211 211 225 233 228 223 220 219 219 225 235 238 231 223 222 224 215 208 212 207 198 202 208 209 210 214 214 208 202 200 195 187 182 183 184 189 205 208 194 189 191 191 190 189 189 190 189 188 187 187 187 186 185 186 186 183 182 183 185 185 186 189 191 193 195 196 197 198 199 200 200 200 199 198 199 199
268 260 260 260 243 231 228 215 219 232 228 215 214 220 223 218 216 220 216 213 223 237 240 237 235 225 199 193 208 207 194 193 206 210 207 210 218 214 202 203 203 192 182 184 185 184 199 213 200 188 189 190 188 189 190 191 190 189 189 188 187 187 187 187 186 184 182 182 184 185 186 188 189 191 194 196 196 198 199 199 198 198 197 198 198 199
348 291 266 261 256 248 238 227 223 230 236 240 234 223 221 221 219 220 217 212 215 223 234 245 246 229 126 148 194 206 205 189 189 207 207 206 212 214 209 204 199 195 187 186 190 189 194 205 200 188 186 188 189 190 190 191 191 191 191 188 187 188 189 189 187 184 182 181 183 185 185 187 188 190 193 195 196 198 198 198 197 197 197 198 198 199
357 269 254 256 261 265 256 253 260 251 243 252 254 239 228 223 224 227 225 224 224 218 214 225 236 207 115 114 173 192 201 201 189 198 207 208 206 206 211 206 193 192 191 190 197 197 191 194 196 189 185 187 190 189 189 192 193 193 192 190 189 190 189 188 187 184 182 182 184 184 185 187 188 190 193 195 197 198 199 198 197 197 197 198 199 199
318 254 245 242 241 244 240 247 266 252 238 245 247 236 231 229 230 233 230 237 251 231 217 211 222 204 130 124 130 121 176 219 208 193 200 210 210 201 202 201 193 193 191 189 196 201 194 189 187 185 183 187 190 190 189 192 194 193 193 192 191 190 188 187 186 185 184 185 185 184 185 187 189 192 194 196 198 198 200 200 198 196 196 199 200 199
288 263 253 245 233 225 217 221 251 252 245 254 240 226 224 228 232 236 232 232 249 243 235 218 211 213 174 145 153 197 211 230 230 203 194 202 212 214 199 190 196 190 184 183 192 200 194 182 178 180 181 186 190 191 189 191 193 195 195 194 193 190 187 186 186 185 185 185 185 185 187 188 190 193 194 196 198 199 200 201 200 197 196 198 200 200
278 265 256 259 254 256 271 282 289 291 292 280 254 238 233 226 225 239 243 230 230 230 233 230 230 240 210 174 171 197 192 179 177 51 13 197 192 187 102 29 13 95 143 169 187 202 189 169 172 180 182 185 191 192 190 191 194 195 195 195 195 191 187 186 185 184 184 186 187 187 188 189 191 193 194 195 198 200 200 202 202 199 198 198 199 201
265 261 251 254 256 261 276 282 277 276 289 289 281 286 280 245 220 232 238 227 231 227 220 223 236 259 241 182 153 126 76 67 76 53 25 39 102 106 74 48 177 151 141 161 180 198 191 172 172 180 184 187 191 192 192 192 193 194 194 194 195 193 189 187 185 184 183 185 187 188 188 190 191 193 194 194 197 200 201 201 202 201 198 197 199 202
253 258 253 256 259 261 266 270 270 268 279 284 278 292 300 270 222 226 237 231 231 229 223 229 235 246 260 62 93 92 61 34 38 36 27 75 70 58 45 28 223 179 158 162 172 184 193 189 180 182 187 189 192 193 193 193 193 194 193 192 194 195 191 187 185 184 183 185 187 188 188 188 189 191 192 193 195 198 200 201 201 200 198 198 200 202
255 257 259 264 267 266 262 262 268 269 270 275 270 269 286 280 236 226 234 237 235 229 228 246 255 249 246 46 49 41 27 19 9 2 5 78 63 33 12 5 359 18 61 57 61 176 190 195 190 187 189 191 194 196 196 193 192 194 193 192 193 195 191 187 185 185 184 185 187 187 186 186 187 188 189 191 193 195 198 200 200 200 199 198 200 202
260 251 255 265 267 261 259 260 261 260 258 262 264 259 263 271 253 236 234 238 236 230 227 237 253 251 233 72 22 340 336 350 340 347 5 26 28 4 346 353 5 8 5 2 354 343 288 217 201 193 192 196 197 199 199 196 194 195 195 193 193 194 191 187 187 187 186 186 186 185 184 184 185 185 187 189 190 191 195 198 199 200 199 198 200 202
265 263 256 260 263 257 260 263 255 250 251 251 252 252 250 250 248 243 242 239 234 229 225 229 242 246 242 325 355 329 321 328 329 344 359 358 351 336 324 338 355 350 345 348 341 330 321 292 235 206 200 203 203 202 201 199 196 196 197 195 193 193 191 189 188 188 187 186 184 183 183 183 183 183 184 185 187 188 191 195 198 199 198 198 199 200
254 266 262 258 261 260 261 264 258 251 248 242 239 244 247 249 251 250 246 242 238 231 223 224 231 235 260 340 334 318 324 332 340 350 347 341 332 321 323 340 345 335 333 334 323 316 317 312 284 245 221 212 209 208 206 202 198 197 197 195 192 191 191 190 189 187 186 186 185 183 182 181 181 182 181 183 184 185 188 192 196 198 198 199 199 199
243 249 260 261 261 264 265 266 267 259 248 242 241 238 237 240 245 249 248 242 237 232 232 244 240 235 280 347 321 314 325 327 335 338 327 329 339 340 345 352 345 329 320 314 308 309 315 312 299 290 276 247 224 216 212 207 201 198 197 194 191 191 192 190 188 187 186 186 185 183 182 181 181 181 180 181 182 183 186 191 194 197 198 198 199 199
246 243 249 254 254 263 268 261 252 246 242 250 263 257 247 240 236 240 246 246 240 233 240 253 251 247 298 339 316 319 323 318 320 323 326 355 15 10 355 349 344 329 314 308 307 307 309 305 295 287 284 275 252 227 214 210 205 198 194 193 190 190 192 190 187 186 185 186 185 183 182 182 181 181 180 180 181 183 186 189 192 196 198 199 200 200
252 250 250 252 253 258 261 250 245 253 260 258 258 260 262 254 243 242 243 239 227 222 236 243 245 256 313 338 323 318 320 315 310 316 13 29 19 5 355 344 337 329 319 313 310 307 306 303 297 289 278 274 268 246 219 209 206 198 193 192 190 189 190 189 187 185 185 186 186 184 183 182 181 182 181 180 182 184 186 188 191 194 197 200 202 202
245 252 253 250 245 251 257 249 248 263 265 257 257 265 279 283 275 264 253 231 202 190 227 235 237 284 340 346 327 317 318 307 284 281 35 23 6 358 353 340 333 331 324 317 313 308 306 300 294 292 283 267 258 251 230 209 203 198 192 191 190 188 189 188 187 186 186 186 187 185 184 183 182 183 182 181 183 185 186 188 189 192 195 199 203 203
240 242 251 256 247 247 257 255 250 253 249 248 342 5 6 351 327 313 296 255 216 170 143 244 255 2 358 340 322 316 304 277 250 244 17 4 355 353 347 339 336 332 325 322 315 308 306 303 301 300 293 276 253 246 236 214 200 194 190 190 189 187 188 189 189 188 186 186 186 185 184 184 183 183 183 184 185 186 187 187 189 191 194 198 203 207
249 239 240 254 252 246 251 249 244 246 232 114 27 0 2 352 335 332 309 250 218 141 359 294 9 27 360 323 317 317 294 260 248 357 1 349 345 347 344 340 337 331 328 324 315 311 312 311 307 301 291 279 255 240 235 218 199 191 190 191 190 187 188 190 190 189 187 186 185 183 183 184 184 184 185 186 187 188 187 187 188 190 193 198 204 208
252 245 234 238 241 242 246 245 247 253 228 93 51 346 342 348 342 320 237 219 42 45 359 340 20 24 343 322 324 341 353 313 316 346 346 340 341 343 342 340 336 332 329 324 318 318 317 311 304 296 286 274 253 237 230 215 198 190 190 191 191 189 190 191 190 188 186 184 183 183 183 184 185 185 186 187 188 188 188 187 188 190 193 198 203 207
259 256 242 240 240 237 236 239 247 251 222 78 31 347 345 336 315 253 231 316 2 15 39 41 23 9 2 350 349 13 19 350 335 337 341 344 344 341 341 340 336 333 329 325 323 321 317 311 305 296 285 271 253 234 224 213 199 188 187 190 193 193 193 192 188 185 183 182 183 184 184 185 186 186 187 187 187 187 188 188 189 190 192 197 201 205
254 247 242 241 244 241 237 242 247 239 134 15 321 339 8 313 256 217 330 321 328 15 38 39 29 13 2 4 13 12 358 346 342 343 348 353 350 343 342 340 336 335 332 327 326 324 320 316 309 296 281 265 249 228 217 212 198 182 182 190 196 197 194 189 185 182 182 182 182 184 184 185 185 185 186 187 186 187 188 188 190 191 192 196 200 202
270 266 250 237 240 245 239 240 243 235 45 7 317 311 41 350 286 33 347 319 335 16 19 19 26 8 352 358 8 0 354 350 346 348 355 358 353 346 342 338 337 336 331 327 328 327 323 318 310 299 280 260 243 220 214 211 191 175 181 192 197 197 192 186 184 182 180 180 182 183 184 183 183 183 185 186 185 185 186 186 189 191 192 194 196 198
282 272 268 263 260 248 235 233 247 280 24 16 352 352 58 47 28 360 330 327 350 1 350 348 3 357 351 353 350 349 356 355 348 351 355 355 352 346 339 335 336 337 333 328 327 325 322 319 313 301 281 262 236 211 212 210 186 173 185 193 196 197 191 184 182 180 178 180 182 182 181 181 181 182 184 183 182 184 184 185 187 189 190 191 193 195
239 247 278 288 281 269 261 270 301 309 323 11 25 15 30 63 75 318 316 319 331 343 342 335 335 341 344 344 344 349 353 352 353 353 351 349 348 343 335 329 331 336 336 329 326 327 327 325 318 302 284 276 238 202 206 207 186 177 188 194 195 196 190 182 179 180 179 179 180 180 179 179 179 180 182 182 181 183 184 185 186 187 188 189 192 195
247 268 283 282 286 292 285 279 284 282 279 293 311 305 318 359 102 297 307 301 299 319 326 318 319 326 330 331 337 344 343 348 357 354 347 347 346 340 334 328 328 336 339 335 332 333 332 331 329 313 290 292 254 202 200 201 189 186 193 196 195 192 186 180 178 178 179 179 179 179 178 177 178 179 181 181 182 184 185 185 186 187 187 189 193 196
307 337 313 287 290 297 284 286 315 302 288 290 288 273 272 280 269 257 275 290 299 302 301 305 311 312 313 317 327 331 335 344 354 352 348 348 344 337 335 331 330 337 342 338 332 329 330 337 343 337 318 305 274 210 200 198 196 198 200 198 194 188 181 178 177 177 178 180 179 178 178 178 176 176 178 180 182 184 186 187 188 189 189 191 194 196
354 349 319 295 295 290 275 289 310 299 282 278 275 266 263 267 265 255 255 273 291 295 290 286 294 300 304 309 316 321 326 335 347 349 346 344 340 335 333 331 331 337 342 338 330 327 331 342 352 355 353 346 328 272 221 210 209 208 202 197 193 186 179 176 176 176 177 179 178 178 179 177 174 174 177 181 184 185 188 190 192 192 193 194 195 197
332 314 305 304 301 285 277 297 315 303 279 265 262 265 268 267 266 266 267 270 277 285 288 282 275 282 294 300 305 312 317 326 339 344 341 341 342 336 333 333 333 336 340 337 331 329 333 343 356 3 3 1 3 4 303 232 213 202 197 193 189 183 178 177 178 178 178 177 176 177 177 175 174 176 178 181 183 183 184 188 193 195 195 195 197 200
325 298 303 307 294 283 295 325 330 313 291 282 283 283 282 279 271 268 271 274 273 276 283 284 276 273 284 294 297 302 310 320 331 337 341 345 342 338 336 335 334 334 337 337 336 336 341 348 357 2 4 4 7 21 47 26 18 192 193 193 189 185 181 179 181 183 181 179 177 176 175 175 177 179 182 183 177 169 168 175 184 190 191 192 197 201
308 292 305 300 282 285 301 309 309 300 287 286 290 285 279 277 270 266 269 275 275 275 278 279 276 277 284 289 290 293 303 314 321 332 345 345 340 341 341 335 331 333 340 342 342 343 347 354 359 3 5 3 4 14 39 46 48 92 199 200 195 190 184 182 185 186 184 182 180 176 174 176 176 177 183 185 175 163 161 162 164 174 182 186 192 198
Height
750 760 761 758 753 748 745 741 739 733 727 727 729 730 731 732 725 713 714 711 710 729 735 730 735 737 740 744 744 744 742 745 747 754 767 758 744 745 746 747 750 753 753 753 757 761 765 768 772 777 780 784 789 792 796 800 803 807 809 813 816 819 822 824 827 830 832 834 836 838 839 840 841 843 844 844 845 845 846 848 849 850 851 852 852 853
750 760 755 747 743 738 737 737 737 735 732 733 735 732 727 728 723 707 709 711 708 728 736 727 734 738 735 735 738 741 742 743 744 756 770 759 744 743 744 746 748 749 749 751 756 759 762 766 770 774 778 782 786 790 794 798 802 805 808 811 814 817 820 823 825 828 830 833 834 836 838 839 840 842 843 844 845 845 846 848 849 850 851 852 852 853
757 757 746 737 735 735 735 734 737 739 738 738 737 738 733 724 720 711 704 706 710 726 736 730 738 740 728 726 733 736 739 741 738 743 753 750 743 744 744 746 748 750 750 750 754 756 759 763 767 771 775 779 783 787 792 796 800 803 806 809 812 815 818 821 824 826 828 831 833 835 837 838 838 840 842 843 844 845 846 847 849 850 850 851 852 853
759 750 738 731 731 736 739 735 737 742 741 741 738 742 740 723 723 725 711 707 712 721 729 730 737 736 726 728 735 731 729 733 733 734 742 743 740 742 742 744 748 751 751 751 752 753 755 759 764 768 771 776 780 784 789 793 797 800 804 807 810 813 816 819 822 824 827 830 832 834 836 837 838 839 841 842 844 845 846 847 848 849 850 851 852 852
748 737 728 730 731 736 741 739 740 745 745 742 737 739 739 726 723 724 713 710 717 722 723 728 742 741 730 732 734 727 724 728 731 738 749 746 735 735 739 741 744 747 748 751 751 751 753 756 760 764 768 772 776 781 785 789 793 797 800 804 807 811 814 817 820 823 826 828 831 833 835 837 838 839 840 842 843 844 845 846 847 848 849 850 851 852
739 726 721 731 734 735 741 741 740 744 746 743 736 734 734 727 723 719 713 716 731 738 725 729 758 756 733 729 728 722 727 734 733 735 742 740 733 736 741 741 743 744 746 748 748 749 750 753 757 762 765 769 772 776 781 785 789 794 797 801 805 808 811 815 818 821 824 826 829 831 833 835 837 838 839 840 842 843 844 845 846 847 848 850 851 852
733 724 722 732 735 736 742 742 736 737 746 745 731 726 730 730 728 724 721 728 741 742 720 718 752 758 737 730 722 715 723 731 731 729 729 733 739 742 742 742 745 746 747 746 746 747 749 751 754 758 761 765 768 772 777 782 786 790 794 798 802 805 809 812 815 818 821 824 827 829 831 833 835 836 838 839 841 841 843 844 845 846 847 849 850 851
730 729 728 732 736 738 741 741 733 733 746 743 722 719 728 732 735 730 728 735 735 730 719 710 729 750 744 728 714 711 718 722 725 728 726 728 736 739 738 742 747 748 747 747 747 745 746 748 750 753 758 760 764 769 774 779 782 787 791 794 798 802 806 809 812 815 818 821 824 827 829 831 833 835 836 838 839 841 842 843 844 845 846 847 849 850
725 733 732 730 739 739 734 733 729 730 741 735 718 719 727 730 735 732 734 739 731 733 738 721 718 743 746 722 708 709 717 720 721 724 725 724 728 735 739 742 745 746 746 746 747 744 742 744 746 749 754 758 762 766 770 774 779 784 788 791 796 799 803 806 809 812 816 819 821 824 827 829 831 833 835 837 838 840 841 842 843 844 845 846 848 849
721 724 724 726 736 736 729 726 724 727 733 727 718 721 727 731 732 733 738 740 738 745 749 731 717 733 740 724 713 714 717 719 715 715 718 719 722 730 736 739 738 739 741 743 744 741 738 740 744 747 751 756 759 763 768 772 776 781 785 789 792 795 799 803 806 809 812 816 819 822 824 826 829 831 833 835 836 838 839 841 842 843 844 845 846 848
719 714 715 720 726 727 724 721 718 721 723 722 724 728 734 737 735 736 736 738 752 756 744 730 717 723 737 728 713 711 710 706 705 708 713 717 722 729 732 733 732 734 738 738 737 736 735 737 741 745 748 752 756 760 765 769 773 777 781 785 789 792 796 799 803 806 809 813 816 819 822 824 826 828 830 832 834 836 838 839 840 842 843 844 845 847
726 722 719 717 716 719 724 722 716 716 718 723 731 735 744 747 743 746 743 744 764 761 737 725 718 721 736 726 705 697 694 695 699 702 708 717 723 726 728 728 727 731 738 737 735 735 735 737 739 741 744 748 752 756 761 765 769 773 777 781 785 789 793 796 800 803 806 810 813 816 819 821 824 826 828 830 832 833 835 837 838 840 841 842 844 845
732 727 720 716 714 716 727 731 724 721 722 728 734 740 754 760 760 765 760 754 760 751 729 721 723 728 728 713 697 689 685 688 692 691 698 709 714 718 723 724 725 731 735 734 736 737 735 735 734 735 739 744 748 752 756 761 765 769 773 777 781 785 788 792 796 799 803 806 810 813 816 819 821 824 825 827 829 831 833 834 836 838 839 840 842 843
734 728 721 721 717 713 724 732 732 730 728 733 735 741 756 762 769 777 766 756 754 742 724 716 722 731 725 705 692 687 680 677 679 682 685 692 701 709 713 717 724 732 732 730 735 738 733 728 727 729 734 739 744 748 752 757 761 765 770 773 777 781 784 789 792 796 800 803 806 810 813 816 818 821 823 825 827 829 830 832 833 835 836 838 839 841
740 736 722 722 719 714 721 724 722 722 725 729 725 730 743 745 753 762 755 753 751 738 725 721 724 730 724 703 684 680 676 669 670 675 676 680 692 702 707 711 718 726 729 729 734 737 728 721 721 724 729 734 739 744 748 753 757 761 765 769 773 777 781 785 788 792 796 799 803 806 809 813 815 818 820 822 824 826 828 829 831 832 834 835 837 838
740 732 707 706 708 708 718 717 710 716 724 722 717 726 735 728 728 735 732 729 732 733 727 722 721 714 703 688 673 673 676 672 672 674 674 679 688 698 705 708 712 718 724 726 732 734 723 715 717 720 724 730 734 740 744 748 753 756 761 765 769 773 777 780 784 788 792 796 800 803 806 809 812 815 817 819 822 823 825 827 828 830 832 833 835 836
745 733 703 699 703 702 711 713 708 716 722 716 720 729 723 712 715 728 730 718 719 736 729 715 716 708 699 694 679 674 678 675 677 680 678 677 685 697 703 705 708 712 718 720 723 725 717 710 714 716 720 725 730 735 739 743 748 751 756 760 765 769 773 777 780 784 788 792 796 799 802 806 809 812 814 816 818 820 822 824 826 828 829 831 833 834
746 743 715 704 710 700 697 706 706 706 708 712 720 719 711 712 715 722 735 732 732 743 727 709 713 713 714 712 690 680 685 681 679 682 681 678 683 694 698 701 703 703 708 712 712 713 710 707 710 713 717 721 725 729 733 738 743 748 752 756 760 764 768 773 776 780 784 788 792 795 798 802 805 808 810 813 815 817 820 821 823 825 827 829 830 832
748 754 731 711 716 706 693 706 715 707 702 706 706 701 708 729 732 727 737 740 741 746 733 715 711 707 709 706 692 690 692 688 683 681 682 683 683 687 690 695 699 697 700 704 706 709 708 704 706 709 713 716 721 726 730 735 740 745 749 753 756 760 763 768 773 776 780 783 787 791 794 798 802 805 807 810 812 814 816 818 820 822 824 826 828 829
752 762 748 718 713 713 706 711 721 714 705 704 703 701 705 716 721 723 727 728 733 740 736 727 719 708 695 686 685 689 687 686 687 683 682 682 680 681 682 684 689 691 694 697 702 707 707 703 701 703 708 712 717 723 727 732 736 740 745 749 753 757 761 765 769 772 776 779 783 787 791 795 798 801 804 806 809 811 813 815 816 818 821 822 825 827
755 762 760 733 716 720 720 716 718 715 709 710 714 717 714 708 707 712 715 714 721 732 732 731 729 710 683 672 676 678 676 677 680 680 681 678 673 673 674 676 679 682 687 691 693 697 703 701 696 699 705 708 714 720 724 729 732 736 740 744 749 753 757 760 764 767 771 775 779 783 787 791 794 798 801 803 806 808 810 812 813 815 818 820 822 824
761 762 761 747 732 730 724 713 712 711 705 706 711 714 714 709 709 720 725 712 710 721 722 724 728 703 668 661 667 667 668 670 670 673 676 674 671 668 667 670 672 674 680 685 686 692 701 700 694 696 701 705 710 716 720 724 728 732 735 739 744 748 751 755 758 762 766 770 775 779 782 787 790 794 797 800 802 804 806 809 810 813 815 817 819 821
767 769 767 758 742 732 720 707 707 707 700 701 705 702 703 705 705 719 729 716 708 716 713 714 722 699 662 656 664 664 664 665 664 667 669 669 667 665 664 663 665 668 672 677 681 688 694 694 690 692 698 703 706 710 715 720 723 727 730 734 739 742 746 750 754 758 762 766 770 774 779 783 787 790 793 796 798 800 803 805 807 809 811 813 816 818
774 775 773 766 749 734 722 711 708 708 707 712 711 702 700 700 697 700 705 704 707 713 712 722 730 704 670 663 665 663 663 663 664 665 665 666 663 661 662 661 662 666 668 671 675 677 680 683 686 691 695 699 703 707 712 716 719 723 727 730 733 736 741 746 750 755 758 762 766 770 775 779 782 786 789 792 794 796 799 801 803 806 808 810 812 814
782 776 773 772 765 754 746 740 733 723 717 720 716 706 701 697 695 694 693 702 715 710 704 722 731 703 675 671 672 670 670 669 666 663 663 664 663 660 660 659 661 665 666 670 673 674 676 680 685 689 692 696 700 703 707 712 715 719 722 725 728 732 737 741 746 750 754 758 762 766 770 774 778 781 784 787 790 792 795 797 800 802 804 807 809 811
785 780 776 779 775 764 761 765 761 744 731 725 715 706 702 699 699 701 703 720 733 717 703 712 716 696 676 677 682 680 678 677 671 665 664 665 664 662 661 662 664 665 665 668 671 674 676 679 682 685 689 694 698 700 704 709 712 716 719 722 725 728 733 737 741 745 750 754 758 762 766 769 773 776 779 782 786 788 791 794 796 798 801 803 805 808
785 780 777 780 777 765 761 764 761 750 744 738 723 712 706 700 701 707 717 728 727 718 712 705 702 698 685 679 685 684 681 681 678 674 671 667 665 665 667 668 667 667 668 670 672 673 674 677 680 684 687 692 695 698 702 706 709 713 716 720 723 726 729 733 737 741 745 749 753 757 760 764 767 771 774 778 782 785 787 790 792 795 797 800 802 804
787 784 776 776 773 765 760 757 751 747 749 745 734 727 719 705 704 713 720 717 711 719 722 704 698 708 695 680 686 690 689 687 684 683 681 673 669 670 673 674 672 671 672 674 676 677 677 678 681 683 686 690 693 696 699 703 706 709 713 718 721 724 726 730 733 737 741 745 749 752 755 758 762 766 770 774 778 781 784 786 788 791 794 797 799 801
784 782 772 768 766 760 755 751 745 744 748 744 737 736 729 715 711 715 715 710 708 719 721 706 702 708 699 691 693 694 695 694 689 686 681 676 676 678 679 678 675 672 674 676 678 679 680 681 681 683 686 687 690 693 695 700 704 707 711 714 717 720 723 726 730 733 737 741 744 747 751 755 759 763 767 771 774 778 780 782 785 788 790 793 795 797
779 779 771 768 768 762 754 750 747 747 750 747 739 735 730 722 715 714 714 711 708 710 709 707 709 706 700 702 701 693 692 692 688 686 682 681 685 686 685 684 680 678 679 680 681 680 680 681 681 683 685 687 689 691 693 697 700 704 707 710 713 717 719 723 727 730 733 736 740 744 748 752 756 760 763 767 770 774 777 779 782 784 787 789 792 794
781 781 773 771 773 766 755 750 750 749 749 748 743 735 731 729 722 716 715 712 710 709 707 708 714 707 695 696 698 694 692 692 692 692 690 689 690 691 692 691 688 687 687 685 685 684 682 682 682 683 686 687 688 690 691 694 697 701 704 707 711 713 716 720 724 726 730 733 737 741 745 749 753 756 759 763 767 770 773 776 779 781 784 786 788 791
786 783 774 774 778 769 755 752 749 743 742 746 745 738 735 734 729 722 716 712 709 710 711 714 718 708 693 692 698 696 694 696 697 697 697 696 695 694 696 695 693 693 691 690 691 689 686 685 683 683 684 685 686 688 690 692 695 699 701 704 707 710 713 717 720 724 728 731 735 739 742 745 749 752 756 760 763 767 770 773 776 778 780 783 785 788
788 788 780 779 781 769 754 748 743 740 747 748 740 736 735 732 727 720 713 708 705 705 710 717 715 701 694 700 705 702 700 702 703 701 701 701 699 696 696 697 698 696 693 694 694 692 689 687 684 682 681 682 684 686 687 689 692 695 697 700 704 708 711 714 717 722 726 729 733 736 739 742 746 749 753 756 759 763 766 770 773 774 777 779 782 784
787 790 787 782 782 773 756 746 747 758 763 747 727 722 726 726 726 723 715 708 703 700 703 708 704 696 701 711 713 709 705 704 704 702 699 699 700 701 701 701 702 702 700 698 697 694 691 688 686 683 681 681 681 683 685 687 689 692 696 699 703 707 709 712 716 720 724 727 730 733 736 740 742 745 749 752 756 759 763 766 769 771 774 777 779 781
783 786 786 784 781 774 760 755 766 773 759 736 721 718 719 718 717 718 713 705 702 703 706 709 706 703 710 717 715 711 707 702 700 700 698 699 703 706 707 707 706 706 705 702 699 697 693 690 687 685 683 681 679 679 682 684 686 690 694 696 700 703 706 710 713 717 721 725 727 730 734 736 740 743 746 749 753 755 759 762 765 769 771 773 776 778
779 781 783 784 782 777 770 768 771 762 740 725 723 722 720 718 716 719 718 708 705 711 715 715 713 712 716 720 716 712 709 703 700 700 701 705 707 707 709 709 707 706 704 701 698 695 692 689 686 684 682 681 679 677 677 680 683 686 690 693 696 700 703 707 710 714 718 721 724 727 730 733 737 740 742 746 749 752 755 759 762 765 768 770 773 775
775 777 780 783 781 779 776 767 757 751 741 732 729 725 723 725 727 733 736 723 711 713 718 718 720 721 721 722 719 713 710 710 708 705 705 708 709 708 709 708 706 705 702 698 695 691 689 687 684 682 680 679 678 676 673 675 679 682 686 690 693 697 700 703 707 710 713 716 720 723 726 730 733 736 739 743 745 748 752 755 758 762 765 767 769 771
771 773 777 782 780 776 775 769 760 759 754 743 738 734 729 730 730 735 746 742 723 717 721 722 724 726 727 727 723 717 715 716 713 709 709 711 711 709 709 707 705 703 701 697 693 689 686 683 681 679 678 675 674 674 671 671 674 678 682 686 688 692 696 699 702 705 708 711 715 719 723 726 729 733 736 739 742 745 748 751 755 758 761 764 766 768
772 771 774 780 780 776 775 774 767 760 752 747 746 740 734 734 732 736 754 755 732 721 725 725 725 730 733 732 726 720 719 718 714 713 715 714 712 711 710 708 706 703 700 697 693 687 683 681 678 676 674 671 670 670 669 668 670 674 678 681 684 688 691 693 697 700 703 707 711 715 719 723 726 729 732 735 738 741 744 748 751 754 758 761 763 765
777 778 778 779 778 776 775 773 762 748 741 743 745 741 735 734 737 749 765 759 738 729 730 729 730 735 735 733 728 725 727 728 724 723 722 717 714 712 711 709 707 703 699 696 692 687 683 678 673 670 668 667 666 666 666 665 666 670 674 678 681 683 686 688 691 695 700 704 708 712 716 719 722 725 728 732 735 739 742 745 748 751 754 757 759 762
785 787 784 777 772 769 770 771 760 744 739 741 741 738 736 736 743 756 764 758 747 741 736 733 736 738 736 735 732 730 732 733 730 727 723 719 717 715 711 710 707 703 700 696 692 688 683 676 671 666 664 663 662 663 663 662 663 667 671 676 678 679 681 685 689 694 698 702 705 708 711 715 718 721 725 729 732 736 739 742 744 747 750 753 756 758
788 787 783 778 773 765 762 764 759 746 743 745 740 735 737 744 754 760 760 757 753 748 742 741 742 741 738 736 734 733 733 731 729 727 724 723 722 718 714 712 708 704 701 697 693 689 684 677 671 665 661 660 660 660 660 660 661 665 670 673 675 676 680 684 688 692 695 698 701 705 708 711 715 718 722 726 729 733 736 738 741 744 746 749 752 754
788 786 780 773 769 764 761 762 761 754 749 746 742 741 745 753 760 762 761 759 755 750 748 747 746 745 742 736 733 734 733 731 730 728 726 725 724 722 719 715 711 707 703 699 694 690 685 679 672 664 659 658 657 658 659 659 660 663 668 671 673 677 680 684 686 689 692 695 699 701 704 708 712 715 719 722 726 729 732 735 738 741 743 746 749 751
793 793 785 773 769 769 762 755 756 756 750 746 747 751 755 757 759 761 761 760 757 754 752 749 748 748 744 739 737 735 733 733 732 729 727 727 726 725 722 718 714 710 705 700 696 691 686 681 673 665 660 657 656 657 658 658 660 664 667 670 674 678 680 683 686 688 691 693 696 699 702 705 709 713 716 719 723 726 729 732 735 737 740 743 745 748
795 794 793 786 781 776 763 752 751 753 749 747 749 752 753 755 757 759 760 759 759 757 755 753 751 748 745 742 740 737 735 734 732 730 729 728 727 726 724 720 716 712 707 702 697 692 687 680 672 666 662 658 656 657 658 659 660 664 668 671 675 677 679 681 685 687 689 692 694 697 700 703 706 710 713 716 720 723 726 729 732 734 737 739 742 744
792 792 795 792 783 774 762 752 751 751 747 746 748 749 751 753 754 757 758 758 758 758 758 757 753 748 746 744 741 740 738 735 733 732 731 729 728 727 725 721 717 712 707 703 698 693 687 680 673 667 663 660 658 657 658 659 661 664 668 671 674 675 677 680 683 686 688 690 692 695 697 700 704 707 710 714 717 720 723 726 728 731 733 735 738 740
793 793 795 789 782 778 767 755 752 754 750 748 748 748 749 751 752 755 757 757 756 756 756 757 754 750 747 744 742 742 740 736 734 735 732 730 729 728 725 722 717 712 708 704 700 696 690 683 677 670 665 663 661 659 659 661 662 665 668 670 672 674 676 679 682 684 686 688 691 693 695 697 700 704 707 711 714 717 720 723 725 727 730 731 734 736
797 798 795 787 782 780 770 758 756 755 751 748 749 747 747 750 752 753 754 755 755 754 753 754 754 752 748 744 742 742 741 738 736 735 734 732 731 729 726 722 717 713 709 706 701 697 692 686 681 674 669 666 664 663 662 662 663 665 667 668 670 672 674 677 680 682 684 686 688 690 692 695 697 700 704 707 711 714 717 719 721 723 725 727 729 732
802 800 795 789 783 776 767 763 764 759 751 748 747 746 748 752 753 753 753 753 754 753 752 751 751 751 749 745 742 741 741 739 737 735 735 733 731 729 726 722 718 715 711 707 703 698 693 688 683 678 673 669 667 665 665 664 664 664 666 667 668 670 672 675 677 680 682 684 685 688 690 692 695 697 700 704 708 710 712 714 717 719 721 724 726 728
807 802 797 793 786 774 767 770 774 771 762 754 749 749 752 754 754 753 752 751 751 751 751 750 748 747 747 746 743 742 741 740 738 736 734 733 731 729 726 723 720 716 712 709 705 699 695 690 685 681 677 673 669 669 668 667 665 665 666 667 668 669 671 673 676 677 679 680 682 684 686 689 691 694 697 700 703 706 708 711 714 716 718 721 723 725
810 807 804 801 794 784 778 777 776 773 766 757 752 751 752 752 753 752 751 750 750 750 750 748 746 746 746 746 744 742 740 740 738 735 733 733 732 730 728 725 721 717 714 710 706 701 697 692 687 683 679 676 674 672 671 669 668 668 668 669 668 668 670 672 674 675 675 677 678 680 682 685 688 691 694 697 700 703 706 710 712 714 716 718 720 722